Pontiac, IL

6:20 AM CDT on May 25, 2018 (GMT -0500)
Pontiac Municipal

Weather History for KPNT - February, 2014

Change the Weather History Date:

Sunday, February 16, 2014

  Actual Average Record
Temperature  
Mean Temperature 16 °F -  
Max Temperature 23 °F 36 °F 68 °F (1921)
Min Temperature 8 °F 18 °F -8 °F (1958)
Degree Days  
Heating Degree Days 50    
Moisture  
Dew Point 15 °F    
Average Humidity 85    
Maximum Humidity 93    
Minimum Humidity 74    
Precipitation  
Precipitation 0.00 in - - ()
Sea Level Pressure  
Sea Level Pressure 30.14 in    
Wind  
Wind Speed 7 mph (NW)    
Max Wind Speed 17 mph    
Max Gust Speed 21 mph    
Visibility 8 miles    
Events Snow    
Averages and records for this station are not official NWS values.
T = Trace of Precipitation, MM = Missing Value Source: NWS Daily Summary

Daily Weather History Graph

Daily Weather History Graph

Search for Another Location

Airport or City:

Astronomy

Feb. 16, 2014 Rise Set
Actual Time 6:47 AM CST 5:30 PM CST
Civil Twilight 6:19 AM CST 5:58 PM CST
Nautical Twilight 5:47 AM CST 6:30 PM CST
Astronomical Twilight 5:15 AM CST 7:02 PM CST
Moon 7:28 PM CST (2/16) 7:16 AM CST (2/16)
Length of Visible Light 11h 39m
Length of Day
10h 42m
Full, 97% of the Moon is Illuminated
Feb 16
Full
Feb 22
Last Quarter
Mar 1
New
Mar 8
First Quarter
Mar 16
Full

Hourly Weather History & Observations

Time (CST) Temp. Windchill Dew Point Humidity Pressure Visibility Wind Dir Wind Speed Gust Speed Precip Events Conditions
12:15 AM 21.2 °F 12.6 °F 19.4 °F 93% 29.95 in 7.0 mi SW 6.9 mph - N/A   Overcast
12:35 AM 21.2 °F 14.9 °F 19.4 °F 93% 29.94 in 7.0 mi SW 4.6 mph - N/A   Overcast
12:55 AM 21.2 °F 14.9 °F 19.4 °F 93% 29.94 in 7.0 mi SW 4.6 mph - N/A   Overcast
1:15 AM 21.2 °F 16.4 °F 19.4 °F 93% 29.95 in 7.0 mi West 3.5 mph - N/A   Overcast
1:35 AM 23.0 °F 15.8 °F 19.4 °F 86% 29.95 in 7.0 mi WSW 5.8 mph - N/A   Overcast
1:55 AM 23.0 °F 17.0 °F 19.4 °F 86% 29.94 in 7.0 mi West 4.6 mph - N/A   Overcast
2:15 AM 23.0 °F 17.0 °F 19.4 °F 86% 29.95 in 7.0 mi West 4.6 mph - N/A   Overcast
2:35 AM 23.0 °F 15.8 °F 19.4 °F 86% 29.94 in 7.0 mi WNW 5.8 mph - N/A   Mostly Cloudy
2:55 AM 21.2 °F 12.6 °F 17.6 °F 86% 29.95 in 7.0 mi WNW 6.9 mph - N/A   Scattered Clouds
3:15 AM 19.4 °F 8.6 °F 15.8 °F 86% 29.96 in 7.0 mi WNW 9.2 mph - N/A   Scattered Clouds
3:35 AM 17.6 °F 9.3 °F 15.8 °F 93% 29.97 in 7.0 mi WNW 5.8 mph - N/A   Scattered Clouds
3:55 AM 19.4 °F 8.6 °F 15.8 °F 86% 29.98 in 7.0 mi West 9.2 mph - N/A   Mostly Cloudy
4:15 AM 19.4 °F 9.5 °F 15.8 °F 86% 29.98 in 7.0 mi WNW 8.1 mph - N/A   Mostly Cloudy
4:35 AM 17.6 °F 8.2 °F 15.8 °F 93% 29.99 in 7.0 mi WNW 6.9 mph - N/A   Mostly Cloudy
4:55 AM 17.6 °F 5.7 °F 15.8 °F 93% 30.00 in 7.0 mi WNW 10.4 mph - N/A   Overcast
5:35 AM 19.4 °F 6.0 °F 15.8 °F 86% 30.02 in 7.0 mi WNW 13.8 mph - N/A   Overcast
5:55 AM 19.4 °F 8.6 °F 17.6 °F 93% 30.03 in 7.0 mi NW 9.2 mph - N/A   Overcast
6:15 AM 19.4 °F 8.6 °F 17.6 °F 93% 30.04 in 7.0 mi NW 9.2 mph - N/A   Overcast
6:35 AM 19.4 °F 7.9 °F 17.6 °F 93% 30.05 in 7.0 mi NW 10.4 mph - N/A   Overcast
6:55 AM 19.4 °F 7.2 °F 17.6 °F 93% 30.06 in 7.0 mi NW 11.5 mph - N/A   Overcast
7:15 AM 19.4 °F 6.6 °F 17.6 °F 93% 30.08 in 7.0 mi NW 12.7 mph - N/A   Mostly Cloudy
7:35 AM 19.4 °F 7.2 °F 17.6 °F 93% 30.09 in 7.0 mi NW 11.5 mph - N/A   Scattered Clouds
7:55 AM 19.4 °F 6.6 °F 15.8 °F 86% 30.11 in 7.0 mi NW 12.7 mph - N/A   Mostly Cloudy
8:15 AM 19.4 °F 7.9 °F 15.8 °F 86% 30.12 in 5.0 mi NW 10.4 mph - N/A   Overcast
8:35 AM 19.4 °F 6.6 °F 15.8 °F 86% 30.12 in 5.0 mi NW 12.7 mph 18.4 mph N/A   Mostly Cloudy
8:55 AM 19.4 °F 5.5 °F 15.8 °F 86% 30.13 in 5.0 mi NNW 15.0 mph - N/A Snow Light Snow
9:15 AM 19.4 °F 6.0 °F 15.8 °F 86% 30.14 in 5.0 mi NW 13.8 mph - N/A   Clear
9:35 AM 19.4 °F 6.0 °F 15.8 °F 86% 30.15 in 5.0 mi NNW 13.8 mph - N/A   Clear
9:55 AM 19.4 °F 6.0 °F 15.8 °F 86% 30.15 in 7.0 mi NNW 13.8 mph - N/A   Clear
10:15 AM 19.4 °F 4.5 °F 15.8 °F 86% 30.17 in 5.0 mi NNW 17.3 mph 20.7 mph N/A   Clear
10:35 AM 19.4 °F 5.0 °F 15.8 °F 86% 30.18 in 5.0 mi NNW 16.1 mph - N/A   Clear
10:55 AM 21.2 °F 8.3 °F 15.8 °F 80% 30.19 in 7.0 mi NNW 13.8 mph - N/A   Clear
11:15 AM 21.2 °F 7.3 °F 15.8 °F 80% 30.19 in 7.0 mi NNW 16.1 mph - N/A   Clear
11:35 AM 21.2 °F 8.9 °F 15.8 °F 80% 30.19 in 10.0 mi NNW 12.7 mph - N/A   Clear
11:55 AM 21.2 °F 8.9 °F 15.8 °F 80% 30.18 in 7.0 mi NNW 12.7 mph - N/A   Clear
12:15 PM 21.2 °F 10.9 °F 15.8 °F 80% 30.18 in 7.0 mi NNW 9.2 mph - N/A   Clear
12:35 PM 21.2 °F 12.6 °F 15.8 °F 80% 30.20 in 7.0 mi NW 6.9 mph - N/A   Clear
12:55 PM 21.2 °F 12.6 °F 15.8 °F 80% 30.19 in 10.0 mi NW 6.9 mph - N/A   Clear
1:55 PM 23.0 °F 17.0 °F 15.8 °F 74% 30.20 in 10.0 mi NW 4.6 mph - N/A   Clear
2:15 PM 23.0 °F 14.7 °F 15.8 °F 74% 30.20 in 10.0 mi NNW 6.9 mph - N/A   Clear
2:35 PM 23.0 °F 17.0 °F 15.8 °F 74% 30.21 in 10.0 mi NW 4.6 mph - N/A   Clear
2:55 PM 23.0 °F 17.0 °F 15.8 °F 74% 30.21 in 10.0 mi NW 4.6 mph - N/A   Clear
3:15 PM 23.0 °F 17.0 °F 15.8 °F 74% 30.22 in 10.0 mi NW 4.6 mph - N/A   Clear
3:35 PM 23.0 °F 18.4 °F 15.8 °F 74% 30.22 in 10.0 mi WNW 3.5 mph - N/A   Clear
3:55 PM 23.0 °F 18.4 °F 15.8 °F 74% 30.22 in 10.0 mi NNW 3.5 mph - N/A   Clear
4:15 PM 21.2 °F 14.9 °F 15.8 °F 80% 30.23 in 10.0 mi NW 4.6 mph - N/A   Clear
4:55 PM 21.2 °F - 14.0 °F 74% 30.25 in 10.0 mi Calm Calm - N/A   Clear
5:15 PM 19.4 °F - 12.2 °F 74% 30.25 in 10.0 mi Calm Calm - N/A   Clear
5:35 PM 17.6 °F - 12.2 °F 79% 30.25 in 10.0 mi Calm Calm - N/A   Clear
5:55 PM 14.0 °F - 8.6 °F 79% 30.25 in 10.0 mi Calm Calm - N/A   Clear
6:15 PM 10.4 °F 4.0 °F 6.8 °F 85% 30.25 in 10.0 mi NE 3.5 mph - N/A   Clear
6:35 PM 10.4 °F 4.0 °F 8.6 °F 92% 30.26 in 7.0 mi East 3.5 mph - N/A   Clear
6:55 PM 10.4 °F - 6.8 °F 85% 30.27 in 7.0 mi Calm Calm - N/A   Clear
7:15 PM 8.6 °F - 6.8 °F 92% 3.02 in 7.0 mi Calm Calm - N/A   Clear
7:35 PM 8.6 °F 2.0 °F - N/A% - 7.0 mi East 3.5 mph - N/A   Clear
7:55 PM 10.4 °F 4.0 °F 6.8 °F 85% 30.26 in 7.0 mi ESE 3.5 mph - N/A   Clear
8:15 PM 12.2 °F 2.9 °F 8.6 °F 85% 30.25 in 10.0 mi ESE 5.8 mph - N/A   Clear
8:35 PM 14.0 °F 5.1 °F 10.4 °F 86% 30.26 in 7.0 mi SE 5.8 mph - N/A   Unknown
8:55 PM 15.8 °F 6.1 °F 12.2 °F 86% 30.25 in 7.0 mi SSE 6.9 mph - N/A   Unknown
9:15 PM 15.8 °F 10.2 °F 12.2 °F 86% 30.26 in 7.0 mi SSE 3.5 mph - N/A   Clear
9:35 PM 15.8 °F - 12.2 °F 86% 30.26 in 7.0 mi Calm Calm - N/A   Unknown
9:55 PM 15.8 °F 6.1 °F 12.2 °F 86% 30.25 in 7.0 mi SE 6.9 mph - N/A   Unknown
10:15 PM 15.8 °F 5.1 °F 12.2 °F 86% 30.24 in 7.0 mi ESE 8.1 mph - N/A   Clear
10:35 PM 15.8 °F 5.1 °F 14.0 °F 93% 30.25 in 7.0 mi ESE 8.1 mph - N/A   Scattered Clouds
10:55 PM 19.4 °F 9.5 °F 15.8 °F 86% 30.26 in 10.0 mi ESE 8.1 mph - N/A   Scattered Clouds
11:15 PM 17.6 °F 7.3 °F 14.0 °F 86% 30.25 in 7.0 mi ESE 8.1 mph - N/A   Scattered Clouds
11:35 PM 17.6 °F 8.2 °F 12.2 °F 79% 30.25 in 7.0 mi ESE 6.9 mph - N/A   Clear
11:55 PM 15.8 °F 5.1 °F 14.0 °F 93% 30.24 in 7.0 mi ESE 8.1 mph - N/A   Scattered Clouds